Theta_e
303 304 306 306 307 307 307 307 306 306 307 307 307 307 307 308 308 309 311 313 313 314 315 315 314 314 313 313 313 313 312 311 311 311 309 307 306 305 304 304 303 303
301 302 302 303 303 303 304 305 306 305 306 305 306 307 306 305 304 305 307 308 309 310 312 313 313 313 313 312 311 310 311 310 309 308 308 306 306 306 305 305 304 304
299 299 300 301 303 303 303 303 303 303 304 305 304 303 304 303 304 302 304 304 306 307 307 309 310 310 310 311 310 309 309 309 308 307 306 307 306 306 306 305 305 304
297 298 300 300 301 301 302 301 301 301 301 301 302 303 302 302 301 302 301 300 303 304 304 305 306 307 308 307 307 307 307 307 308 307 306 306 306 306 306 306 305 305
297 298 298 299 299 299 299 300 300 301 300 301 301 300 300 300 300 300 300 299 300 301 301 301 302 304 304 305 305 305 305 305 306 306 305 305 306 306 306 305 303 303
295 296 297 298 298 298 299 299 299 299 300 299 300 300 299 299 299 299 298 298 298 299 299 299 300 300 300 301 302 303 304 303 304 304 304 304 304 303 304 303 303 301
295 295 296 296 296 296 297 298 298 298 298 299 296 298 297 297 297 298 298 298 298 297 297 298 298 298 298 299 300 301 302 302 302 301 301 301 301 299 299 299 299 299
293 293 293 293 293 294 294 295 295 296 296 294 295 297 295 297 297 297 297 296 296 297 296 296 297 298 298 297 298 298 299 300 300 298 298 298 298 298 298 298 298 298
291 291 290 290 290 292 292 293 293 292 292 293 294 294 293 294 295 295 294 294 295 295 296 295 296 295 295 295 296 296 297 297 299 298 297 297 297 297 298 297 296 296
291 291 290 291 291 292 291 291 291 291 291 291 292 292 293 293 292 293 293 293 293 294 294 294 294 294 294 294 295 295 296 296 296 296 297 296 297 297 297 297 297 296
291 291 291 291 291 291 291 291 291 291 290 291 291 291 292 292 292 291 292 292 293 293 294 294 294 294 294 294 294 295 295 295 296 296 296 296 296 297 294 296 296 296
291 291 291 290 290 290 290 290 290 290 290 290 290 291 291 291 291 291 291 292 293 293 293 293 294 294 294 294 295 294 294 294 294 295 295 295 295 296 296 295 295 296
290 290 290 290 290 290 290 290 290 290 289 290 290 289 290 291 291 291 291 291 292 292 292 293 293 293 293 294 294 294 294 294 294 294 294 294 295 295 296 296 295 296
289 289 289 289 289 289 289 289 289 290 290 290 289 289 289 290 290 291 291 291 291 291 292 292 292 292 293 293 293 293 293 293 293 293 293 294 294 294 294 295 295 295
289 289 289 288 288 289 289 289 289 289 289 288 288 289 289 289 289 290 290 290 290 290 290 291 291 292 293 293 293 293 293 293 293 293 293 293 293 293 294 294 294 294
288 288 288 288 288 288 288 288 288 288 288 288 288 288 288 288 288 289 289 289 289 290 290 290 291 292 290 291 292 293 293 293 293 293 292 292 292 292 292 293 293 294
287 287 287 287 288 287 287 287 288 288 287 287 288 288 288 288 288 288 289 289 289 289 290 290 291 291 290 292 293 294 293 293 292 293 292 292 292 292 292 292 292 293
287 287 287 287 287 287 287 287 286 286 287 287 287 287 288 288 287 288 288 289 289 289 289 289 290 290 292 292 293 293 293 293 293 292 292 292 292 292 292 292 292 293
286 286 286 286 287 286 286 286 285 286 286 286 287 287 286 286 288 288 288 288 288 288 289 289 289 290 291 292 293 293 294 293 293 293 292 291 292 292 291 292 292 292
286 286 286 286 286 286 286 286 286 286 286 286 286 286 287 287 287 287 287 287 288 288 288 289 289 289 291 291 292 292 293 293 293 292 292 292 292 292 292 292 292 292
285 285 285 285 285 285 285 285 285 286 286 286 286 286 286 286 287 287 287 287 287 287 288 288 289 290 291 291 292 292 293 293 292 292 291 291 291 291 291 291 291 291
284 284 284 284 284 284 284 284 285 285 285 286 285 286 286 286 286 286 286 286 287 286 287 287 288 290 290 291 291 292 293 291 291 290 290 290 290 291 291 291 291 291
284 284 283 283 283 283 283 283 284 284 285 284 284 285 285 285 285 286 286 286 286 286 286 286 287 288 289 290 291 291 291 289 289 289 289 289 289 290 290 291 290 290
283 283 282 282 282 282 282 283 283 284 284 284 283 283 284 285 285 285 285 285 285 285 285 285 286 287 288 289 290 290 290 288 288 288 288 288 288 289 290 289 289 287
283 282 281 281 281 281 281 281 282 282 283 283 283 283 283 284 284 284 284 285 285 284 284 284 285 285 287 288 289 289 289 287 288 287 287 287 288 288 288 288 288 287
282 281 281 280 280 281 281 281 281 281 281 282 282 282 282 283 283 283 282 283 284 283 284 284 284 284 285 286 288 288 289 288 288 287 286 286 287 287 287 287 287 286
Wind_Speed
5 4 6 6 6 6 6 6 6 6 6 6 7 7 8 7 6 8 9 8 9 9 9 8 8 8 7 7 7 7 7 8 8 7 9 10 11 12 13 14 12 12
6 5 5 4 5 5 6 6 6 6 7 7 7 6 6 7 8 7 8 9 8 9 8 8 8 8 7 6 6 7 7 6 8 4 7 10 10 10 14 14 13 12
4 5 5 6 7 7 7 6 5 6 6 7 6 6 7 6 7 7 7 8 9 9 9 9 9 9 9 8 8 8 8 8 9 5 7 9 9 10 10 10 10 12
4 5 5 6 6 7 6 5 6 5 5 6 8 7 6 6 6 7 7 7 8 8 8 8 9 9 9 8 8 8 9 9 9 7 9 8 8 8 10 9 11 11
4 4 5 6 6 6 5 6 7 6 7 7 6 6 6 6 7 7 7 7 7 8 7 8 8 9 9 8 8 9 9 9 8 8 9 10 9 9 9 9 10 12
4 4 5 6 6 5 6 6 7 6 7 7 8 6 6 7 7 8 8 8 7 7 8 7 8 8 8 8 8 9 9 8 8 9 10 11 10 9 9 10 11 12
5 5 6 6 6 5 6 6 6 6 6 7 4 7 6 7 8 8 8 8 7 8 8 8 8 8 8 8 9 10 9 9 8 9 11 11 10 10 9 10 10 11
6 5 5 5 5 5 6 6 6 6 6 5 6 8 5 7 8 7 7 7 8 8 8 9 9 9 8 8 9 10 11 9 9 9 11 11 10 12 10 9 9 11
4 4 4 4 4 4 5 6 6 6 5 6 7 7 6 6 7 7 7 7 8 8 9 9 9 9 8 8 9 10 11 10 10 10 11 12 12 12 11 9 10 11
4 5 5 5 6 5 6 6 6 6 5 5 6 6 7 6 6 7 6 7 8 8 9 9 8 8 8 8 10 10 11 11 10 11 11 11 12 12 10 10 11 11
9 9 9 10 9 8 9 8 7 6 6 6 6 7 7 6 7 5 6 7 8 9 8 8 8 8 8 9 9 10 10 10 10 10 11 11 11 11 11 11 11 12
10 10 10 10 9 9 9 9 8 7 7 6 5 7 7 6 7 6 6 8 8 9 8 8 8 8 9 10 10 10 10 10 10 10 11 10 11 11 11 10 11 11
10 10 9 9 9 9 8 8 8 8 7 8 6 6 7 8 7 7 7 7 8 8 8 8 8 8 9 10 10 10 11 11 10 10 11 10 11 11 10 10 11 11
8 8 8 8 8 8 8 8 8 8 8 7 6 7 7 7 8 8 8 6 8 8 8 8 8 8 9 9 10 10 10 10 10 10 11 11 11 10 10 11 11 11
7 7 6 7 7 7 8 8 8 8 8 8 7 7 7 7 7 7 8 9 8 8 8 8 8 9 9 9 9 10 10 11 11 11 11 11 11 11 11 11 11 11
6 6 6 6 6 7 7 7 7 8 7 8 8 7 7 7 7 7 7 8 9 9 8 8 8 8 10 14 13 11 10 10 10 11 11 11 11 11 11 11 12 11
5 6 6 6 6 6 6 7 7 7 7 7 7 7 8 7 6 7 8 7 8 9 9 9 8 8 13 14 15 17 13 11 11 11 10 11 11 12 12 11 11 12
5 6 6 5 5 5 6 6 5 5 5 6 6 6 6 6 7 8 8 8 8 8 9 9 9 10 14 14 15 17 15 12 11 11 11 11 11 12 11 11 11 11
5 6 6 6 7 6 6 4 5 4 5 5 5 5 5 5 7 7 8 7 7 9 10 9 9 10 12 15 15 17 17 15 11 11 11 12 11 12 11 11 11 11
8 7 9 9 8 7 8 7 7 7 7 5 5 5 6 6 6 6 7 8 8 9 10 9 9 9 11 13 15 16 17 15 12 12 12 13 13 12 11 12 12 11
9 9 10 10 9 8 8 8 8 9 9 8 7 7 8 9 9 10 8 7 8 8 9 10 9 10 12 13 14 16 16 15 11 11 11 12 12 12 12 13 12 11
8 9 9 8 9 9 9 9 9 8 10 10 8 8 6 6 7 5 8 9 8 8 9 12 9 9 13 13 14 14 17 11 10 10 11 11 11 12 12 11 11 11
8 9 8 9 9 9 9 9 9 10 8 6 9 8 7 8 8 8 7 8 10 8 8 11 11 9 11 13 13 14 12 9 9 9 11 12 12 12 11 11 10 10
9 8 9 9 9 9 10 10 8 7 7 6 8 11 12 10 9 10 9 7 9 11 8 10 13 11 11 13 14 14 12 10 9 9 11 12 12 12 10 9 10 13
8 9 9 9 10 10 8 10 10 9 9 7 7 7 10 9 8 9 11 10 8 9 12 11 12 14 11 11 16 15 12 8 9 9 11 12 10 11 9 8 9 10
7 8 8 8 10 10 9 8 8 9 9 8 9 7 9 10 9 9 11 12 10 8 10 10 11 13 11 11 15 16 16 11 8 9 10 13 11 10 11 9 8 9
Wind_Direction
249 232 240 242 241 240 245 235 229 229 232 224 220 224 216 231 228 231 234 235 237 240 241 239 237 235 231 228 223 226 228 229 228 212 210 213 222 222 226 228 225 229
245 245 255 261 267 254 247 237 243 225 238 229 232 237 233 222 223 211 222 230 233 237 240 242 240 238 234 229 224 233 239 233 238 204 215 219 225 221 230 228 227 228
265 262 254 250 252 258 252 250 241 243 238 246 246 235 241 229 237 222 224 218 220 225 228 233 236 238 238 240 241 242 245 245 246 213 217 228 226 226 233 230 231 229
265 249 254 256 253 259 260 257 250 239 247 252 241 240 230 235 227 234 230 232 233 235 229 224 225 226 227 229 231 238 239 241 242 235 237 238 232 229 234 231 232 231
280 275 254 255 255 259 264 255 256 247 239 246 262 250 242 239 237 236 233 232 230 237 235 234 233 232 227 229 224 234 233 237 233 227 233 238 236 231 239 234 237 236
303 278 277 270 264 261 259 249 255 253 251 251 246 245 237 239 240 238 234 235 231 233 234 234 233 230 225 225 227 233 235 234 228 221 229 235 236 225 231 228 230 232
310 310 295 285 286 271 268 268 267 260 257 255 271 251 237 241 242 241 239 235 236 233 234 235 232 231 224 222 224 234 234 234 232 223 229 236 233 233 227 228 229 232
324 304 285 290 280 282 266 270 267 260 260 268 252 262 235 246 247 248 244 240 238 240 238 234 235 232 224 218 227 233 236 229 233 228 232 237 229 235 229 226 230 234
274 277 276 274 273 269 269 270 271 270 262 261 266 270 259 247 258 257 249 245 246 246 246 243 236 237 226 221 228 232 236 235 230 228 231 235 235 236 233 226 229 233
1 349 357 356 353 337 321 314 301 299 289 272 276 278 273 265 251 257 255 248 252 253 249 249 248 241 236 229 235 235 238 238 235 233 233 234 236 238 235 230 232 236
9 7 5 1 355 346 337 328 321 311 304 289 290 283 276 277 271 249 254 252 251 254 256 253 249 245 242 240 239 241 243 244 242 240 238 237 237 237 234 230 231 233
7 4 4 354 346 341 335 329 324 318 311 301 279 284 287 277 273 269 248 253 252 255 255 256 253 246 244 246 245 244 245 245 245 244 244 242 241 239 237 232 232 235
2 358 351 346 343 335 328 327 325 320 316 308 302 285 289 289 278 268 261 254 261 261 258 260 259 252 248 247 248 247 247 247 246 246 247 245 243 242 239 238 236 236
352 343 343 337 332 330 328 326 324 322 317 308 309 302 292 284 285 282 278 264 261 258 258 256 256 255 254 254 253 254 253 254 251 250 249 248 246 244 240 238 237 236
331 337 332 331 331 330 333 331 328 321 316 315 309 298 287 281 280 282 285 281 271 260 263 253 252 253 251 251 255 254 250 254 252 250 249 251 250 245 241 239 240 238
322 322 326 322 328 332 326 322 319 318 316 313 307 294 289 284 285 279 273 275 281 278 268 261 255 255 252 249 248 253 256 255 254 252 248 248 250 251 247 239 239 239
321 318 315 322 313 309 312 316 316 315 313 309 306 305 299 297 288 289 281 276 274 277 279 272 266 260 261 259 257 253 253 257 256 257 252 249 249 249 252 247 241 237
320 315 314 310 304 303 300 291 286 290 294 292 296 300 300 298 293 283 283 281 277 272 271 270 269 265 265 266 262 260 255 255 258 257 256 252 249 250 252 251 248 244
325 330 329 330 333 324 314 311 306 305 308 311 306 291 283 280 278 279 275 272 268 274 273 268 268 266 263 264 263 262 260 256 259 257 256 256 252 249 250 250 249 249
347 345 345 340 335 336 335 333 337 335 323 309 306 307 306 305 300 292 290 286 280 280 281 279 272 274 258 264 266 264 262 259 258 259 258 258 256 252 251 250 247 248
351 346 342 339 338 338 338 338 338 331 332 332 329 325 323 319 317 315 305 296 292 284 284 283 278 275 273 272 271 271 270 266 264 263 261 261 258 254 251 250 249 248
346 341 337 337 336 337 338 336 334 331 325 325 322 315 302 288 288 271 284 292 285 283 287 286 284 276 275 276 273 272 274 272 267 264 264 263 261 256 252 249 248 245
343 338 335 333 333 332 332 330 328 324 320 316 314 311 307 308 305 301 296 293 293 285 280 285 287 280 273 273 271 270 273 269 267 265 264 262 261 259 254 252 245 240
335 336 332 330 330 331 325 320 316 307 308 322 318 317 316 314 313 308 301 288 287 290 280 283 289 286 276 278 275 270 264 266 265 265 266 264 265 261 257 253 246 234
330 331 329 325 323 318 318 314 314 311 307 309 303 301 297 301 304 302 301 299 286 281 286 279 281 287 280 262 276 277 271 262 264 264 267 266 266 267 260 251 248 236
320 319 313 313 312 310 310 304 304 307 307 309 305 302 301 304 302 295 295 293 293 282 280 273 276 280 277 255 270 272 264 261 256 258 259 267 265 264 270 257 245 245